Location: Seattle
(47.6064°N, 122.3308°W)
Time: 00:51:23
(UTC-08:00)

Tiros 1 - Pass Details

Date: 30 November 2020
Orbit: 630 x 663 km, 48.4° (Epoch: 28 January)

Event Time Altitude Azimuth Distance (km) Brightness Sun altitude
Rises 19:07:13 0° 284° (WNW) 2,991 11.7 -27.4°
Reaches altitude 10° 19:09:34 10° 283° (WNW) 2,074 10.6 -27.8°
Enters shadow 19:13:26 55° 261° (W) 785 7.7 -28.4°
Maximum altitude 19:14:21 72° 199° (SSW) 689 - -28.6°
Drops below altitude 10° 19:19:04 10° 116° (ESE) 2,050 - -29.4°
Sets 19:21:23 0° 114° (ESE) 2,953 - -29.8°
